                ,  0.671,  0.819,  0.966,  1.114,  1.262,  1.410,  1.558,  1.705,  1.853,  2.001,  2.149,  2.297,  2.445,  2.592,  2.740,  2.888,  3.036,  3.184,  3.331,  3.479,  3.627,  3.775,  3.923,  4.070,  4.218,  4.366,  4.514,  4.662,  4.809,  4.957,  5.105,  5.253,  5.401,  5.549,  5.696,  5.844,  5.992,  6.140,  6.288,  6.435,  6.583,  6.731,  6.879,  7.027,  7.174,  7.322,  7.470,  7.618,  7.766,  7.914,  8.061,  8.209,  8.357,  8.505,  8.653,  8.800,  8.948,  9.096,  9.244,  9.392,  9.539,  9.687,  9.835
2001/10/10 00:00,  999.0,    0.1,  999.0,   -0.1,  999.0,  -19.0,  -18.1,  -16.1,  -14.3,  -15.9,  -15.2,  -14.1,  -13.7,  -12.4,   -9.0,   -5.3,  999.0,  999.0,    7.5,    1.1,   11.4,   11.8,   11.9,   12.2,   12.3,   12.7,   12.1,   12.6,   13.1,   15.1,  999.0,  999.0,  999.0,  999.0,  999.0,  999.0,  999.0,  999.0,  999.0,  999.0,  999.0,  999.0,  999.0,  999.0,  999.0,  999.0,  999.0,   24.7,   25.2,   27.2,   26.9,   26.9,   26.6,   26.8,   27.2,   28.0,   29.1,   30.0,   31.3,  999.0,  999.0,  999.0,  999.0
2001/10/10 00:10,  999.0,  999.0,   -0.0,    0.0,  -15.2,  -19.3,  -21.1,  -18.8,  -13.1,  -17.0,  -16.4,  -15.3,  -13.9,  -11.9,   -9.4,   -5.4,  999.0,  999.0,  999.0,  999.0,  999.0,   10.8,   11.8,   13.2,   13.6,   14.0,  999.0,  999.0,  999.0,  999.0,   22.4,  999.0,  999.0,  999.0,  999.0,  999.0,  999.0,  999.0,   21.8,   21.7,   19.6,   19.8,   22.4,   23.0,   23.1,   23.6,   24.8,   25.3,   25.5,   25.4,   25.8,   25.8,  999.0,  999.0,   31.3,   31.9,   30.5,   30.4,   30.8,   30.7,   30.1,  999.0,  999.0
2001/10/10 00:20,  999.0,  999.0,  999.0,  999.0,   -3.7,  -18.8,  -17.8,  -12.7,   -9.4,  -15.8,  -14.5,  -14.6,  -13.5,  -11.7,   -8.5,   -3.3,    1.2,    3.2,    7.0,   10.3,   14.8,   15.0,   15.1,   16.3,   15.5,   17.5,   20.6,   21.8,   22.3,   22.3,   22.1,   21.2,   20.4,   19.8,   18.7,   18.6,   18.8,   19.8,   19.8,   20.0,   20.8,   22.9,   23.5,   23.6,   23.9,   24.0,   24.2,   22.9,   24.4,   24.7,  999.0,  999.0,  999.0,  999.0,  999.0,  999.0,  999.0,  999.0,  999.0,  999.0,  999.0,  999.0,  999.0
2001/10/10 00:30,  999.0,  -15.8,  -20.3,  -18.0,  -19.0,  -20.1,  -20.3,  -19.8,  -19.2,  -17.4,  -15.8,  -14.3,  -13.2,  -10.7,   -7.9,   -3.8,    0.5,    2.4,    6.1,    9.6,   10.9,   12.1,   14.0,   15.0,   16.0,  999.0,   20.0,   18.1,   18.7,   19.0,   18.7,   18.1,   17.9,   18.4,   19.8,   18.9,   19.0,   20.0,  999.0,   24.0,   25.0,   25.4,   26.1,  999.0,   25.5,  999.0,  999.0,  999.0,  999.0,  999.0,  999.0,  999.0,  999.0,  999.0,  999.0,  999.0,  999.0,  999.0,  999.0,  999.0,  999.0,  999.0,  999.0
2001/10/10 00:40,  999.0,  -11.2,   -9.6,   -5.8,  -19.2,  -18.6,  -20.1,  -20.4,  -13.4,  -16.1,  -15.9,  -13.5,  -11.2,   -9.4,   -6.3,   -2.7,    1.0,  999.0,    8.2,    7.0,  999.0,   15.3,   17.3,   19.3,  999.0,  999.0,  999.0,  999.0,  999.0,  999.0,  999.0,  999.0,  999.0,  999.0,   21.9,   20.9,   21.2,   21.2,   22.2,   22.6,   23.5,  999.0,  999.0,  999.0,  999.0,  999.0,  999.0,  999.0,  999.0,  999.0,  999.0,  999.0,  999.0,  999.0,  999.0,  999.0,  999.0,  999.0,  999.0,  999.0,  999.0,  999.0,  999.0
2001/10/10 00:50,  999.0,  999.0,  999.0,  999.0,   -6.1,  -19.4,  -19.9,  -17.2,  -14.8,  -13.9,  -15.5,  -14.0,  -12.7,   -9.5,   -8.6,   -5.1,   -2.3,    0.5,  999.0,    3.7,  999.0,   15.1,   16.7,   18.7,  999.0,  999.0,  999.0,  999.0,  999.0,  999.0,  999.0,  999.0,  999.0,  999.0,  999.0,  999.0,  999.0,  999.0,   23.3,   23.0,   23.6,   24.5,   25.3,   25.1,   24.9,   24.3,  999.0,  999.0,  999.0,  999.0,  999.0,  999.0,  999.0,  999.0,  999.0,  999.0,  999.0,  999.0,  999.0,  999.0,  999.0,  999.0,  999.0
2001/10/10 01:00,  999.0,    0.0,  999.0,  999.0,  -19.8,  -19.4,  -21.4,  -19.3,  -16.5,  -14.2,  -15.3,  -14.1,  -12.5,  -11.7,   -8.7,   -4.0,   -2.9,    1.5,    4.2,    3.5,   13.3,   13.1,   16.3,   17.2,  999.0,  999.0,  999.0,  999.0,  999.0,  999.0,  999.0,  999.0,  999.0,  999.0,   20.2,   19.8,  999.0,   22.3,   22.5,   23.0,   23.7,   23.8,   24.0,   24.0,   24.2,   24.4,   24.3,   25.6,  999.0,  999.0,  999.0,  999.0,  999.0,  999.0,  999.0,  999.0,  999.0,  999.0,  999.0,  999.0,  999.0,  999.0,  999.0
2001/10/10 01:10,  999.0,    0.0,    0.0,  999.0,   -7.3,  -19.7,  -19.5,  -18.5,   -7.2,  -15.3,  -15.2,  -12.3,  -11.4,  -10.2,   -8.3,   -4.6,   -1.4,    3.1,    5.4,    7.4,   12.2,   12.8,   14.3,   14.3,   15.1,   14.7,   14.8,   14.7,  999.0,  999.0,  999.0,  999.0,  999.0,  999.0,   17.1,   18.3,   19.6,   19.8,   20.1,   20.9,   23.7,   24.1,   24.3,   25.6,  999.0,  999.0,  999.0,  999.0,  999.0,  999.0,  999.0,  999.0,  999.0,  999.0,  999.0,  999.0,  999.0,  999.0,  999.0,  999.0,  999.0,  999.0,  999.0
2001/10/10 01:20,  999.0,  999.0,    0.1,  999.0,   -6.3,  -18.9,  -21.7,  -18.9,  -10.9,  -16.7,  -15.2,  -15.0,  -12.0,  -10.4,   -6.9,   -1.4,   -0.0,    1.5,    4.1,    6.6,   10.1,    8.5,   13.5,   15.0,   15.7,   15.1,   14.0,   15.1,   15.0,   14.6,   15.0,   16.9,   18.6,   20.1,   19.8,   22.1,   20.7,   20.5,   21.7,   20.5,   20.1,   19.5,   21.0,   22.1,   22.6,   24.2,   24.3,   24.6,  999.0,  999.0,  999.0,  999.0,  999.0,  999.0,  999.0,  999.0,  999.0,  999.0,  999.0,  999.0,  999.0,  999.0,  999.0
2001/10/10 01:30,  999.0,  999.0,  999.0,  999.0,   -0.0,  -15.1,  -15.7,  -15.9,   -8.7,  -13.0,  -14.0,  -11.0,   -7.8,   -9.2,   -7.7,   -4.4,   -2.7,    1.4,    4.4,    1.7,    8.3,   10.2,   12.0,   12.2,   13.3,   14.0,   14.3,   16.7,  999.0,   18.5,   20.8,   22.7,   23.7,   24.3,   25.4,   27.2,  999.0,   24.7,  999.0,  999.0,  999.0,  999.0,  999.0,  999.0,  999.0,  999.0,  999.0,  999.0,  999.0,  999.0,  999.0,  999.0,  999.0,  999.0,  999.0,  999.0,  999.0,  999.0,  999.0,  999.0,  999.0,  999.0,  999.0
2001/10/10 01:40,  999.0,    0.0,  999.0,   -0.1,    0.1,  -11.8,  -16.1,  -11.1,   -6.4,  -15.9,  -11.7,  -11.6,  -11.1,   -7.8,   -7.4,    0.1,    0.8,    3.8,    9.3,    8.2,   12.9,   13.8,   12.8,   14.7,   15.1,   14.0,   13.5,   15.3,   16.0,   16.0,   17.2,   19.5,   22.0,   23.2,   25.5,   27.0,  999.0,  999.0,  999.0,  999.0,  999.0,  999.0,  999.0,  999.0,  999.0,  999.0,  999.0,  999.0,  999.0,  999.0,  999.0,  999.0,  999.0,  999.0,  999.0,  999.0,  999.0,  999.0,  999.0,  999.0,  999.0,  999.0,  999.0
2001/10/10 01:50,  999.0,  999.0,    0.0,  999.0,   -5.4,  -22.6,  -16.8,  -12.9,  -10.3,  -14.3,  -12.8,   -9.2,   -8.2,   -7.9,   -5.6,    0.2,   -1.6,    2.9,    7.3,    8.9,   10.7,   10.5,   13.2,   12.1,   11.8,   11.2,   14.2,   13.9,   14.3,   17.2,   18.9,  999.0,   21.3,   20.6,   23.4,   26.8,   26.6,  999.0,  999.0,  999.0,  999.0,  999.0,  999.0,  999.0,  999.0,  999.0,  999.0,  999.0,  999.0,  999.0,  999.0,  999.0,  999.0,  999.0,  999.0,  999.0,  999.0,  999.0,  999.0,  999.0,  999.0,  999.0,  999.0
2001/10/10 02:00,  999.0,  999.0,  999.0,  999.0,  -15.2,  -20.2,  -21.4,   -9.6,  -11.9,  -12.7,  -14.4,  -12.6,  -13.4,  -10.7,   -6.4,   -4.3,   -2.1,    2.1,    3.7,    7.4,    8.0,   11.7,   13.5,   15.1,   16.8,   16.5,   16.5,   17.0,   17.4,   19.1,   17.1,   20.3,  999.0,  999.0,  999.0,   24.3,   26.6,   24.1,   25.0,   26.9,   28.7,   28.8,   28.3,   27.7,   28.2,   28.3,   28.4,   28.5,   28.7,   29.0,   29.8,  999.0,  999.0,  999.0,  999.0,  999.0,  999.0,  999.0,  999.0,  999.0,  999.0,  999.0,  999.0
2001/10/10 02:10,  999.0,    0.0,  999.0,  999.0,   -9.2,  -19.4,  -20.8,  -14.5,   -4.2,  -13.5,  -14.7,  -12.5,   -8.1,   -9.1,   -5.8,   -3.0,   -0.2,    7.6,    5.4,    7.0,   11.7,   13.1,   17.7,   17.7,   17.6,   17.9,   19.8,   17.1,   15.9,   16.9,   19.0,   21.0,   22.3,   23.2,   24.3,   25.0,   24.9,   25.2,   25.9,   25.9,   25.5,   25.5,   25.8,   26.3,   26.7,   27.1,   27.4,   27.3,   27.9,   27.8,   28.5,   28.4,   28.3,   28.7,   26.2,   25.9,   26.1,   27.7,   26.0,   27.8,   27.3,   28.3,   29.1
2001/10/10 02:20,  999.0,  -11.4,  -13.6,  -13.8,  -16.7,  -18.4,  -18.0,  -15.9,  -17.8,  -15.8,  -14.0,  -12.4,  -11.2,   -9.9,   -7.8,   -4.9,   -1.0,    2.7,    7.5,   10.2,   12.3,   14.3,   15.9,   17.5,   18.1,   17.8,   18.0,   18.6,   19.9,   20.8,   21.0,   21.5,   22.1,   22.8,   23.2,   23.7,   24.0,   23.3,   22.9,   23.8,   24.9,   25.1,   26.0,   25.7,   25.6,   25.9,   25.7,   27.7,   26.6,   24.7,   24.4,   24.5,   26.7,   27.6,   28.9,   27.1,   27.5,   26.8,   26.2,   26.0,  999.0,  999.0,  999.0
2001/10/10 02:30,  999.0,  -12.1,  -16.3,  -18.7,  -20.0,  -19.9,  -19.3,  -18.2,  -17.1,  -15.5,  -13.7,  -12.0,  -10.8,   -8.8,   -6.5,   -2.9,    2.2,    7.0,   10.1,   12.2,   13.9,   15.6,   16.6,   17.2,   17.0,   17.9,   18.1,   18.3,   19.1,   19.1,   19.9,   20.2,   20.3,   20.9,   20.9,   20.5,   22.1,   23.9,   25.7,   26.9,   26.9,   26.0,   26.1,   26.9,   27.9,   28.0,   27.7,   27.8,   27.5,  999.0,  999.0,  999.0,  999.0,  999.0,  999.0,  999.0,  999.0,  999.0,  999.0,  999.0,  999.0,  999.0,  999.0
2001/10/10 02:40,  999.0,  -12.0,  -14.3,  -17.3,  -17.8,  -19.7,  -20.3,  -19.4,  -17.8,  -16.4,  -15.0,  -13.3,  -12.1,   -9.0,   -6.0,   -1.2,    3.1,    7.2,    9.3,   11.4,   13.0,   14.8,   16.3,   16.6,   16.6,   16.4,   16.4,   16.8,   15.5,   16.0,   16.5,   16.5,   17.4,   19.2,   20.1,   20.5,   20.9,   20.5,   21.2,   23.6,   23.8,   23.6,   23.0,   23.9,   26.0,   27.8,   24.1,   26.1,   26.0,   26.3,  999.0,  999.0,  999.0,  999.0,  999.0,  999.0,  999.0,  999.0,  999.0,  999.0,  999.0,  999.0,  999.0
2001/10/10 02:50,  999.0,  -12.0,  -13.4,  -21.9,  -20.4,  -20.9,  -20.7,  -19.5,  -17.7,  -16.3,  -14.9,  -13.1,  -10.4,   -7.4,   -3.6,    0.2,    3.2,    5.5,    7.7,    9.0,   10.7,   12.4,   13.0,   14.4,   15.3,   15.5,   15.1,   14.6,   14.1,   14.1,   15.7,   15.0,   17.1,   17.3,   19.3,   19.7,   20.8,   21.4,   21.9,   21.9,   22.3,   21.7,   22.4,   22.2,   23.3,   24.8,   25.4,   26.2,   26.2,   28.9,   28.3,   29.3,   29.0,   30.4,   30.7,   31.4,   31.7,   32.1,   30.9,   30.6,   30.0,   29.4,   29.8
2001/10/10 03:00,  999.0,  -13.1,  -15.8,  -19.0,  -19.9,  -21.2,  -21.3,  -20.3,  -18.4,  -16.9,  -15.5,  -13.2,  -10.7,   -7.5,   -2.4,    0.3,    2.5,    5.3,    7.8,   10.3,   10.8,   11.9,   12.6,   13.4,   13.8,   13.6,   13.9,   14.1,   14.1,   13.6,   14.2,   13.7,   13.9,   16.6,   18.4,   19.1,   19.7,   18.7,   18.8,   19.7,   21.5,   21.0,   22.0,   23.0,   24.1,   25.3,   26.2,   26.8,   26.3,   28.0,   27.0,   26.7,   26.7,   26.8,   27.4,   27.9,   28.1,   27.6,   27.7,   27.2,   26.9,   27.4,   26.2
2001/10/10 03:10,  999.0,  -12.8,  -15.3,  -18.6,  -19.8,  -21.5,  -21.7,  -19.8,  -16.8,  -14.9,  -13.1,  -11.8,   -9.8,   -7.9,   -5.7,   -2.7,   -0.2,    1.2,    2.2,    3.6,    5.3,    7.4,    9.4,   12.0,   13.4,   14.9,   17.4,   17.7,   17.4,   17.8,   18.3,   18.1,   17.7,   17.0,   17.0,   17.4,   17.7,   17.7,   17.5,   17.8,   18.8,   20.3,   20.8,   22.1,   23.4,   23.9,   24.2,   25.2,   24.0,   23.3,   24.0,   24.2,   23.5,   23.5,   23.5,   23.3,   23.0,   22.0,   22.7,   24.1,   24.2,   25.2,   25.6
2001/10/10 03:20,  999.0,  -12.0,  -12.8,  -15.9,  -19.1,  -22.3,  -21.8,  -19.6,  -16.9,  -15.4,  -15.2,  -13.1,  -10.6,   -9.3,   -7.6,   -5.2,   -1.6,    0.5,    3.6,    7.0,   10.5,   14.1,   17.3,   18.7,   20.0,   21.8,   22.5,   21.3,   20.4,   19.1,   19.2,   18.8,   19.0,   19.8,   19.6,   20.1,   19.6,   19.0,   19.3,   18.8,   18.5,   19.3,   18.6,   18.9,   19.6,   19.9,   20.6,   21.2,   21.8,   22.9,   23.5,   23.8,   24.6,   24.6,   24.4,   25.2,   25.7,   26.5,   27.5,   26.5,   27.4,   27.8,   27.1
2001/10/10 03:30,  999.0,  -10.8,  -12.2,  -14.9,  -19.1,  -20.6,  -21.7,  -19.9,  -18.4,  -16.1,  -14.5,  -11.7,   -9.7,   -8.0,   -5.3,   -1.5,    1.7,    3.8,    6.5,    8.8,   11.3,   13.1,   14.9,   16.6,   17.9,   19.2,   18.5,   18.9,   20.4,   19.4,   19.8,   20.2,   20.6,   19.8,   21.4,   22.8,   22.0,   22.6,   22.7,   22.1,   23.5,   24.1,   23.5,   24.5,   24.1,   23.1,   23.4,   24.4,   24.1,  999.0,   24.9,   25.0,   21.7,   31.1,   38.4,   39.0,   25.8,   26.1,   26.1,   26.3,  999.0,  999.0,  999.0
2001/10/10 03:40,  999.0,  -12.4,  -14.0,  -15.9,  -17.8,  -22.6,  -22.8,  -21.2,  -20.1,  -18.3,  -16.2,  -15.5,  -13.9,  -11.5,   -8.2,   -4.6,   -1.7,    0.8,    3.4,    6.9,   10.8,   14.1,   16.3,   18.4,   19.8,   20.0,   20.4,   20.8,   21.0,   20.8,   20.8,   21.0,   20.6,   21.0,   21.3,   22.6,   23.1,   22.5,   23.7,   24.8,   23.2,   23.9,   24.0,   23.3,   23.2,   22.7,   22.6,   23.7,   23.8,   24.4,   24.1,   23.7,   23.2,   24.4,   24.5,   24.1,   24.2,   24.7,   24.2,   23.2,   23.1,   23.0,   23.4
2001/10/10 03:50,  999.0,  -11.0,  -12.5,  -15.0,  -18.1,  -22.1,  -23.0,  -21.5,  -20.0,  -17.4,  -15.1,  -14.1,  -12.3,   -9.7,   -7.2,   -4.5,   -1.5,    1.0,    2.7,    4.7,    7.6,   10.1,   12.4,   14.2,   13.9,   15.7,   16.4,   17.4,   17.2,   18.2,   18.6,   18.8,   18.9,   20.1,   20.7,   21.0,   21.7,   21.6,   22.3,   21.5,   23.1,   22.8,   24.0,   24.3,   23.4,   22.8,   22.1,   21.9,   22.6,   22.7,   24.5,   26.7,   28.8,   29.2,   27.2,   27.9,   28.7,   28.2,   28.1,   27.3,   27.9,   27.4,   26.9
2001/10/10 04:00,  999.0,   -5.9,   -3.5,   -9.7,  -18.9,  -22.1,  -23.8,  -21.8,  -23.1,  -21.5,  -19.4,  -16.0,  -14.0,  -12.1,   -9.5,   -4.8,   -1.9,    1.7,    4.1,    7.3,   10.2,   12.5,   12.8,   14.5,   16.5,   18.5,   20.1,   21.9,   22.8,   24.2,   25.0,   27.5,   27.9,   28.9,   28.5,   28.8,   27.6,   27.3,   24.6,   25.7,   23.5,   24.4,   26.3,   25.7,  999.0,  999.0,   22.3,   23.8,   25.0,   23.9,   24.8,   25.9,   26.6,   27.9,   29.4,   29.6,   29.6,   29.5,   28.8,   28.2,   26.1,   24.3,   23.3
2001/10/10 04:10,  999.0,  -10.3,  999.0,  -17.0,  -20.1,  -23.1,  -24.5,  -24.9,  -24.6,  -23.0,  -17.6,  -16.3,  -13.9,  -12.7,  -11.5,   -6.0,   -1.6,    2.0,    5.3,    6.0,   12.4,   15.6,   17.1,   20.6,   22.2,   23.8,   25.2,   27.1,   29.0,   30.0,   29.7,   29.4,   29.0,   28.8,   26.5,   26.2,   25.4,   28.1,   28.9,   29.0,   29.1,   29.3,   29.8,   30.8,   31.4,   30.6,   29.7,   30.5,   30.2,   30.1,   29.2,   27.7,   27.6,   27.0,   26.2,   24.1,   23.9,   23.3,   23.5,   22.9,   23.1,   23.0,   22.6
2001/10/10 04:20,  999.0,  -15.5,  -16.3,  -21.9,  -22.5,  -24.1,  -24.2,  -24.9,  -24.0,  -21.9,  -19.0,  -15.5,  -12.7,  -10.1,   -5.6,   -1.0,    3.6,    6.1,    9.0,   12.6,   16.7,   19.5,   23.7,   26.0,   26.7,   27.4,   28.3,   28.6,   28.0,   27.5,   26.9,   27.8,   26.8,   27.5,   29.2,   29.3,   29.8,   29.8,   30.4,   28.8,   28.0,   27.2,   26.9,   26.2,   25.8,   25.5,   24.7,   23.7,   24.5,   24.2,   24.5,   24.6,   25.2,   25.2,   25.1,   25.1,   25.3,   25.4,   25.1,   25.2,   25.1,   25.5,   25.7
2001/10/10 04:30,  999.0,  -16.0,  -17.7,  -23.2,  -23.1,  -23.8,  -24.7,  -24.9,  -22.8,  -21.8,  -18.0,  -13.8,  -10.3,   -6.7,   -2.4,    1.8,    5.1,    7.8,   10.7,   13.5,   15.9,   17.6,   19.4,   20.6,   22.0,   22.7,   20.9,   21.8,   23.3,   22.8,   24.6,   24.8,   24.6,   25.2,   25.4,   25.3,   25.9,   25.5,   24.7,   26.5,   26.7,   27.2,   26.2,   26.7,   26.9,   25.7,   26.7,   26.7,   26.5,   26.7,   26.1,   26.3,   25.9,   26.8,   26.8,   26.9,   27.0,   28.2,   28.4,   28.4,   29.8,   30.7,   30.3
2001/10/10 04:40,  999.0,  -14.4,  -16.5,  -17.5,  -21.3,  -24.4,  -25.6,  -25.2,  -23.6,  -20.7,  -17.3,  -14.5,  -10.8,   -6.3,   -1.7,    0.5,    2.1,    4.2,    4.6,    6.0,    9.2,   12.4,   14.5,   15.3,   16.0,   16.9,   15.7,   15.7,   14.1,   17.9,   17.5,   17.9,   19.0,   20.1,   20.6,   22.6,   23.3,   24.5,   25.8,   27.1,   28.0,   27.6,   26.8,   26.5,   27.2,   27.0,   27.3,   26.8,   26.7,   28.8,   26.5,  999.0,  999.0,  999.0,  999.0,   30.2,  999.0,  999.0,  999.0,  999.0,  999.0,  999.0,   29.3
2001/10/10 04:50,  999.0,  -12.9,  -18.5,  -18.2,  -19.9,  -22.8,  -24.5,  -25.3,  -24.3,  -20.7,  -17.1,  -13.8,   -9.7,   -6.8,   -3.2,   -0.7,   -0.1,    1.6,    2.6,    2.5,    3.0,    3.4,    4.1,    4.3,    5.0,    5.8,    7.3,    8.1,    9.6,   10.4,   12.8,   13.0,   14.0,   14.2,   15.6,   15.1,   15.7,   17.1,   16.7,   18.5,   19.2,   20.0,   21.3,   22.3,   24.6,   25.0,   23.6,   24.8,   25.6,   25.7,   26.4,   26.9,   26.9,   27.7,   27.9,   28.4,   28.5,   29.9,   29.2,   29.1,   27.8,   28.5,   28.4
2001/10/10 05:00,  999.0,  -15.4,  -18.4,  -23.4,  -24.0,  -25.5,  -25.5,  -23.9,  -22.4,  -19.4,  -17.2,  -15.1,  -12.8,   -9.8,   -7.3,   -6.0,   -5.0,   -3.6,   -1.8,   -0.4,    0.7,    1.7,    3.1,    4.2,    6.2,    7.4,    7.7,    8.9,    9.0,   10.1,   11.7,   12.2,   13.8,   14.1,   14.1,   14.3,   15.8,   15.8,   15.1,   16.5,   16.4,   16.7,   16.0,   17.6,   18.5,   20.0,   21.3,   21.5,   22.3,   23.6,   24.8,   24.7,   24.7,   24.8,   24.9,   25.0,   25.3,   25.7,   25.7,   25.7,   26.3,   26.8,   26.4
2001/10/10 05:10,  999.0,  -15.5,  -19.1,  -20.2,  -21.9,  -25.0,  -26.1,  -25.5,  -22.9,  -19.9,  -16.7,  -14.6,  -12.9,  -10.8,   -9.1,   -7.8,   -5.9,   -3.2,   -0.6,    0.6,    1.0,    1.6,    2.6,    4.3,    6.4,    7.4,    7.3,    9.8,    9.9,   12.8,   15.0,   15.6,   17.8,   18.3,   19.8,   20.0,   20.2,   19.9,   19.8,   19.5,   19.8,   20.5,   21.2,   22.8,   22.1,   22.1,   22.0,   21.8,   22.2,   23.4,   23.9,   23.7,   23.4,   23.3,   23.7,   24.3,   24.9,   25.5,   26.1,   26.3,   26.9,   27.0,   27.1
